STARLINK-31868, 59783

Orbit data source: Space-Track

STARLINK-31868, 59783 is a payload satellite owned by SpaceX/Seattle (US) in LEO that was launched on Sat, 18 May 2024 UTC via an FALCON 9 launch vehicle from the Air Force Eastern Test Range (AFETR). Payload-class satellites include a variety of spacecraft equipped with specific instruments for various scientific and technological missions. These include communications satellites like Starlink; space stations such as the ISS; scientific satellites like the Hubble; Earth observation satellites from companies like Planet Labs, Umbra, and HawkEye 360; GPS; miniature CubeSats for education and research; and military/defense satellites.

Loading next visibility...
Identifier
59783, 2024-093B
Orbit
LEO
Country
Flag of USUS
Related business
Manufacturer
SpaceX/Seattle
Mission
Operational spacecraft
Bus & Motor
STARLINK V2M, Unknown motor
Mass
730 kg wet, ~700 kg dry
Launch date (UTC)
2024-05-18 (1 year ago)
Launch vehicle
FALCON 9
Launch site
Air Force Eastern Test Range (AFETR)
Object type
Payload
Rocket body
Debris
Shape & HBR
Unknown
Radar Cross Section
Large (>1 m²)

Expand to show TLE details & history
Last TLE update: 23 hours ago

TLE from 23 hours ago
0 STARLINK-31868
1 59783U 24093B   25258.33559101 -.00000651  00000-0 -14139-4 0  9995
2 59783  43.0053 115.9747 0001563 267.0412  93.0261 15.27584012 75918
Epoch: 2025-09-15T08:03Z
TLE epoch observation values (Epoch: 2025-09-15T08:03:15.063Z)
Latitude
Longitude
0.62022°
Altitude
482.87 km
Speed
7.626 km/s
True Right ascension
07h 43m 53s
True Declination
0° 00' 00"
Sunlit
Object was in daylight at epoch
Visualization orbit readout
Latitude
Unknown
Longitude
Unknown
Altitude
Unknown
Speed
Unknown
Apparent Right ascension
Unknown
Apparent Declination
Unknown
Sunlit
N/A
Visualization observer readout
Local Sidereal Time
23:22:09
Azimuth
Unknown
Elevation
Unknown
Doppler factor
Unknown
Orbital elements
Apogee altitude
486.054 km
Perigee altitude
483.909 km
Semi-major axis
6,863.118 km
Eccentricity
0.00016
Inclination
43.0053°
RAAN
115.9747°
Arg. of periapsis
267.0412°
True anomaly
93.04399°
Mean anomaly
93.0261°
Eccentric anomaly
93.03504°
Mean motion
3.81734 °/min
Orbital period
94.31 mins
BSTAR
-0.000014139
Loading maneuver chart data...
Computing Atmospheric mass density...
Loading historical data...
Loading historical data...
Loading historical data...
Loading historical data...
Loading historical data...
Loading historical data...
Loading historical data...

Documentation

Showing up to 5 results
|